[[{"header":{"parameterUnit":"m.s-1","parameterCategory":1,"la1":30.2991,"la2":30.254,"lo1":-89.0895,"lo2":-89.0444,"dy":0.0017,"dx":0.0017,"nx":28,"ny":28,"refTime":"2026-01-07T03:00:00:Z","depth":0,"parameterNumber":2,"parameterNumberName":"U-component_of_WINDS"},"data":[0,0,0,0,0,0,0,0,0,0,0,0,0,0,0,0,0,0,0,0,0,0,0,0,0,0,0,0,0,0,0,0,0,0,0,0,0,0,0,0,0,0,0,0,0,0,0,0,0,0,0,0,0,0,0,0,0,0,1.3622,1.3623,0,1.3693,1.3694,1.3694,1.3662,1.366,1.3658,1.3657,1.3735,1.3739,1.3743,0,0,0,0,0,0,0,0,0,0,0,0,0,1.3463,1.3466,1.3622,1.3623,1.3623,1.3693,1.3694,1.3695,1.3662,1.366,1.3658,1.3656,1.3734,1.3739,1.3743,0,0,0,0,0,0,0,0,0,0,0,0,0,1.3533,1.3467,1.3622,1.3615,1.3616,1.3692,1.3694,1.3695,1.3663,1.366,1.3657,1.3655,1.3733,1.3738,1.3744,1.3832,0,0,1.3761,1.3763,0,0,0,0,0,0,0,0,1.3529,1.3539,1.3616,1.3616,1.3616,1.3666,1.3667,1.3741,1.3663,1.3645,1.3657,1.3653,1.3715,1.3722,1.3741,1.3836,1.3839,1.3761,1.3765,1.3767,1.3769,0,0,0,0,0,0,0,1.3524,1.3536,1.365,1.3617,1.3617,1.3611,1.3618,1.3681,1.3694,1.3646,1.3644,1.3653,1.3714,1.3736,1.3743,1.3841,1.3761,1.3766,1.377,1.3772,1.4013,1.4016,0,0,0,0,0,0,1.3519,1.3532,1.3648,1.3652,1.3565,1.3616,1.3624,1.3653,1.3693,1.3697,1.3655,1.3651,1.3727,1.3736,1.3745,1.3852,1.3767,1.3773,1.3776,1.401,1.4014,1.4017,0,0,0,0,0,0,1.3516,1.353,1.3645,1.3591,1.3606,1.3622,1.3654,1.3655,1.3677,1.37,1.3703,1.3674,1.3726,1.3737,1.3811,1.3855,1.3775,1.378,1.4007,1.4011,1.4015,1.4067,0,0,0,0,0,0,1.3511,1.3529,1.3561,1.3592,1.3609,1.3708,1.3657,1.3659,1.3686,1.3681,1.3718,1.3722,1.3724,1.3802,1.3816,1.3861,1.3785,1.4003,1.4009,1.4014,1.4061,1.4073,1.4082,0,0,0,0,0,1.3506,1.3574,1.3563,1.3577,1.3649,1.371,1.372,1.3719,1.3689,1.3723,1.3738,1.3721,1.3847,1.381,1.3826,1.3873,1.4,1.4007,1.4014,1.4057,1.407,1.4082,0,0,0,0,0,0,1.3549,1.3578,1.3566,1.3646,1.3676,1.3704,1.3747,1.3734,1.3774,1.3768,1.3768,1.3777,1.3853,1.387,1.3828,1.3961,1.3919,1.393,1.3947,1.396,1.397,1.3965,1.3789,0,0,0,0,0,1.3568,1.3613,1.3636,1.3705,1.372,1.3731,1.3757,1.3754,1.3786,1.3799,1.3819,1.3852,1.39,1.3931,1.3976,1.4064,1.4072,1.4104,1.4114,1.4123,1.4132,1.4181,1.4195,1.4039,1.4039,1.4039,0,0,1.3607,1.3628,1.3657,1.3714,1.3736,1.3785,1.3742,1.3795,1.3831,1.3808,1.3878,1.3894,1.3931,1.4012,1.4049,1.4029,1.4177,1.4131,1.4138,1.4142,1.4189,1.4204,1.4217,1.4044,1.4043,1.4042,0,0,1.3704,1.3724,1.3783,1.3806,1.384,1.3847,1.3862,1.3893,1.3902,1.3972,1.3955,1.4,1.4081,1.4108,1.4133,1.424,1.4226,1.4255,1.431,1.4357,1.437,1.438,1.442,1.4434,1.4264,1.4264,1.4264,0,1.3749,1.3819,1.3816,1.387,1.3896,1.3875,1.3936,1.3959,1.4008,1.4027,1.4003,1.4105,1.4128,1.4216,1.4242,1.4262,1.428,1.4251,1.4368,1.4379,1.4389,1.4426,1.4441,1.4267,1.4267,1.4266,1.4266,0,1.3873,1.3923,1.3967,1.4012,1.4043,1.41,1.4107,1.4139,1.4134,1.4144,1.4217,1.4244,1.4294,1.4315,1.4311,1.4403,1.4389,1.4367,1.4325,1.4407,1.4442,1.4456,1.4272,1.4271,1.427,1.4269,0,0,1.3999,1.4041,1.4057,1.4078,1.4114,1.4153,1.4211,1.4258,1.4286,1.432,1.4369,1.4439,1.4418,1.4446,1.4445,1.4487,1.4571,1.446,1.4461,1.448,1.4675,1.4692,1.4708,1.4562,1.4565,1.4567,1.4672,0,1.4098,1.4196,1.4195,1.4287,1.4333,1.4315,1.4365,1.4394,1.4405,1.4448,1.4461,1.451,1.4479,1.4496,1.4536,1.4552,1.4611,1.4545,1.461,1.4612,1.4601,1.4727,1.4744,1.4842,1.4686,1.4688,1.469,0,1.4227,1.4263,1.4359,1.439,1.4409,1.4454,1.4497,1.4538,1.4571,1.4576,1.4608,1.46,1.4661,1.4617,1.4701,1.4656,1.4683,1.4695,1.4699,1.4706,1.4656,1.4737,1.4874,1.4889,1.4711,1.471,1.4708,0,1.4309,1.4383,1.445,1.4468,1.4505,1.4537,1.4554,1.4584,1.4613,1.4652,1.4671,1.4717,1.4743,1.478,1.4786,1.4753,1.4871,1.4828,1.4879,1.4879,1.4905,1.4903,1.5048,1.4922,1.4921,1.4921,1.4921,0,1.442,1.448,1.4487,1.4529,1.4596,1.4595,1.4661,1.4676,1.4704,1.4749,1.4736,1.478,1.4785,1.483,1.4836,1.4905,1.4917,1.4925,1.4925,1.4926,1.4925,1.4944,1.4937,1.4925,1.4924,1.4923,1.4923,0,1.4524,1.4531,1.4603,1.4631,1.464,1.4688,1.4714,1.4754,1.4764,1.4822,1.4835,1.4852,1.4905,1.4914,1.4977,1.4981,1.5064,1.5058,1.5052,1.5052,1.5103,1.5098,1.5265,1.5287,1.5146,1.5147,1.5148,0,1.4594,1.4639,1.4673,1.4701,1.4719,1.4766,1.4795,1.4796,1.4827,1.4869,1.4905,1.4956,1.4997,1.5082,1.5101,1.515,1.5145,1.52,1.5152,1.5151,1.5147,1.5144,1.5149,1.521,1.5211,1.5212,1.5213,0,1.4718,1.472,1.4761,1.4804,1.4838,1.4872,1.4905,1.493,1.4936,1.4972,1.5024,1.5056,1.512,1.5171,1.5219,1.5239,1.5229,1.5228,1.5243,1.5244,1.5239,1.5243,1.5078,1.5224,1.5223,1.5222,1.5222,1.5221,1.4808,1.4847,1.4877,1.4923,1.4948,1.4978,1.5018,1.5032,1.5076,1.5126,1.5125,1.5184,1.5217,1.5281,1.5304,1.5351,1.5333,1.5354,1.536,1.5365,1.537,1.5231,1.536,1.5359,1.5359,1.5359,1.5359,0,1.4931,1.4949,1.4992,1.5037,1.5075,1.5059,1.5095,1.5127,1.5178,1.5209,1.525,1.5311,1.5361,1.5384,1.5434,1.5467,1.5464,1.5481,1.5478,1.5483,1.5382,1.5365,1.5483,1.5483,1.5483,1.5483,1.5483,1.5483,1.5,1.5066,1.5071,1.515,1.5169,1.5224,1.5246,1.5275,1.53,1.5368,1.5409,1.5423,1.5452,1.5504,1.555,1.5555,1.5575,1.5594,1.5598,1.5503,1.549,1.5478,1.5462,1.5598,1.5598,1.5695,1.5696,1.5696]},{"header":{"parameterUnit":"m.s-1","parameterCategory":1,"la1":30.2991,"la2":30.254,"lo1":-89.0895,"lo2":-89.0444,"dy":0.0017,"dx":0.0017,"nx":28,"ny":28,"refTime":"2026-01-07T03:00:00:Z","depth":0,"parameterNumber":3,"parameterNumberName":"V-component_of_WINDS"},"data":[0,0,0,0,0,0,0,0,0,0,0,0,0,0,0,0,0,0,0,0,0,0,0,0,0,0,0,0,0,0,0,0,0,0,0,0,0,0,0,0,0,0,0,0,0,0,0,0,0,0,0,0,0,0,0,0,0,0,1.4551,1.4551,0,1.4565,1.4565,1.4565,1.4558,1.4558,1.4558,1.4557,1.4571,1.4572,1.4572,0,0,0,0,0,0,0,0,0,0,0,0,0,1.4517,1.4518,1.4551,1.4551,1.4551,1.4565,1.4565,1.4565,1.4558,1.4558,1.4558,1.4557,1.4571,1.4571,1.4572,0,0,0,0,0,0,0,0,0,0,0,0,0,1.4532,1.4518,1.4551,1.455,1.455,1.4565,1.4565,1.4565,1.4559,1.4558,1.4558,1.4557,1.457,1.4571,1.4572,1.459,0,0,1.4576,1.4576,0,0,0,0,0,0,0,0,1.4531,1.4533,1.455,1.455,1.455,1.4559,1.4558,1.4573,1.4559,1.4555,1.4557,1.4557,1.4567,1.4569,1.4572,1.459,1.4591,1.4576,1.4576,1.4577,1.4577,0,0,0,0,0,0,0,1.453,1.4532,1.4557,1.455,1.455,1.4548,1.4549,1.4561,1.4564,1.4555,1.4555,1.4557,1.4567,1.4571,1.4573,1.4591,1.4576,1.4577,1.4577,1.4578,1.4623,1.4623,0,0,0,0,0,0,1.4529,1.4532,1.4556,1.4557,1.4539,1.4549,1.4551,1.4557,1.4564,1.4565,1.4557,1.4556,1.457,1.4571,1.4573,1.4593,1.4577,1.4578,1.4578,1.4622,1.4623,1.4623,0,0,0,0,0,0,1.4528,1.4531,1.4556,1.4544,1.4547,1.455,1.4557,1.4557,1.4562,1.4565,1.4566,1.4561,1.457,1.4572,1.4585,1.4594,1.4578,1.4579,1.4621,1.4622,1.4623,1.4634,0,0,0,0,0,0,1.4527,1.4531,1.4538,1.4544,1.4548,1.4568,1.4558,1.4558,1.4563,1.4563,1.4569,1.4569,1.4569,1.4584,1.4586,1.4595,1.458,1.4621,1.4622,1.4623,1.4633,1.4635,1.4637,0,0,0,0,0,1.4526,1.4541,1.4539,1.4542,1.4557,1.4569,1.457,1.457,1.4564,1.4571,1.4573,1.4569,1.4592,1.4585,1.4588,1.4597,1.462,1.4621,1.4623,1.4632,1.4635,1.4637,0,0,0,0,0,0,1.4535,1.4542,1.4539,1.4556,1.4562,1.4567,1.4576,1.4573,1.4581,1.4579,1.4579,1.458,1.4594,1.4597,1.4589,1.4614,1.4605,1.4607,1.4612,1.4614,1.4616,1.4615,1.4581,0,0,0,0,0,1.4539,1.4549,1.4554,1.4568,1.4571,1.4573,1.4578,1.4578,1.4583,1.4586,1.4589,1.4595,1.4603,1.4609,1.4617,1.4633,1.4634,1.4641,1.4643,1.4645,1.4646,1.4655,1.4658,1.4628,1.4628,1.4628,0,0,1.4548,1.4552,1.4558,1.457,1.4574,1.4584,1.4575,1.4586,1.4593,1.4587,1.4601,1.4603,1.4609,1.4624,1.4631,1.4627,1.4655,1.4646,1.4647,1.4648,1.4656,1.4659,1.4662,1.4628,1.4628,1.4628,0,0,1.4568,1.4572,1.4585,1.4589,1.4596,1.4597,1.46,1.4606,1.4607,1.462,1.4616,1.4624,1.4639,1.4643,1.4647,1.4668,1.4665,1.4671,1.4682,1.469,1.4692,1.4695,1.4702,1.4704,1.4672,1.4672,1.4672,0,1.4578,1.4592,1.4591,1.4602,1.4607,1.4603,1.4615,1.4619,1.4628,1.4631,1.4626,1.4644,1.4648,1.4664,1.4669,1.4673,1.4676,1.467,1.4692,1.4694,1.4696,1.4703,1.4706,1.4673,1.4673,1.4673,1.4673,0,1.4603,1.4613,1.4623,1.4631,1.4637,1.4649,1.4649,1.4655,1.4654,1.4655,1.4668,1.4672,1.4681,1.4684,1.4683,1.47,1.4697,1.4692,1.4684,1.47,1.4706,1.4709,1.4674,1.4674,1.4674,1.4673,0,0,1.4631,1.4638,1.4642,1.4645,1.4652,1.4659,1.467,1.4679,1.4684,1.469,1.4698,1.4711,1.4706,1.4711,1.4709,1.4717,1.4733,1.4711,1.4711,1.4715,1.4751,1.4755,1.4758,1.473,1.4731,1.4731,1.4751,0,1.4651,1.4671,1.467,1.4688,1.4697,1.4692,1.4701,1.4706,1.4707,1.4715,1.4716,1.4725,1.4718,1.4721,1.4728,1.4729,1.474,1.4728,1.4738,1.4739,1.4737,1.4762,1.4766,1.4784,1.4753,1.4754,1.4754,0,1.4678,1.4685,1.4704,1.4709,1.4712,1.4721,1.4728,1.4736,1.474,1.4741,1.4746,1.4743,1.4754,1.4744,1.4759,1.475,1.4754,1.4756,1.4756,1.4758,1.4748,1.4764,1.479,1.4793,1.4758,1.4758,1.4757,0,1.4696,1.471,1.4723,1.4726,1.4732,1.4738,1.4741,1.4745,1.475,1.4756,1.4759,1.4766,1.477,1.4776,1.4775,1.4769,1.4789,1.478,1.479,1.479,1.4795,1.4795,1.4823,1.4797,1.4797,1.4797,1.4797,0,1.472,1.4731,1.4731,1.4739,1.4752,1.475,1.4763,1.4765,1.4769,1.4777,1.4772,1.478,1.4778,1.4786,1.4785,1.4797,1.4798,1.4799,1.4799,1.4799,1.4799,1.4802,1.4801,1.4798,1.4798,1.4797,1.4797,0,1.4742,1.4743,1.4756,1.476,1.4762,1.4771,1.4774,1.4781,1.4782,1.4792,1.4794,1.4795,1.4803,1.4803,1.4812,1.4812,1.4826,1.4824,1.4825,1.4824,1.4834,1.4833,1.4865,1.4869,1.4841,1.4841,1.4841,0,1.4757,1.4766,1.4771,1.4776,1.4779,1.4787,1.4792,1.4791,1.4796,1.4802,1.4808,1.4816,1.4822,1.4836,1.4837,1.4844,1.4842,1.4853,1.4843,1.4844,1.4842,1.4842,1.4843,1.4855,1.4855,1.4856,1.4856,0,1.4784,1.4784,1.4791,1.4798,1.4804,1.481,1.4815,1.4819,1.4818,1.4824,1.4832,1.4837,1.4846,1.4854,1.4861,1.4863,1.4859,1.4859,1.4861,1.4862,1.4862,1.4862,1.483,1.4858,1.4858,1.4858,1.4858,1.4857,1.4804,1.4811,1.4815,1.4823,1.4827,1.4832,1.4839,1.484,1.4847,1.4854,1.4853,1.4862,1.4866,1.4874,1.4877,1.4884,1.488,1.4884,1.4885,1.4886,1.4887,1.4861,1.4885,1.4885,1.4885,1.4885,1.4885,0,1.483,1.4833,1.484,1.4847,1.4853,1.4849,1.4854,1.4859,1.4868,1.4872,1.4878,1.4887,1.4894,1.4896,1.4903,1.4908,1.4907,1.491,1.491,1.491,1.489,1.4887,1.4911,1.4911,1.4911,1.4911,1.4911,1.4911,1.4845,1.4857,1.4857,1.4871,1.4873,1.4882,1.4885,1.4889,1.4892,1.4903,1.4909,1.491,1.4913,1.492,1.4926,1.4926,1.4929,1.4933,1.4933,1.4914,1.4912,1.4909,1.4907,1.4934,1.4934,1.4952,1.4952,1.4952]}]]